Location: Bowman Observatory
(41.0326°N, 73.6210°W)
Time: 01:58:01
(UTC-05:00)

Cosmos 2297 - Visible Passes

Search period start: 17 January 2018 00:00
Search period end: 27 January 2018 00:00
Orbit: 835 x 859 km, 71.0° (Epoch: 16 January)

Date Brightness Start Highest point End Pass type
(mag) Time Alt. Az. Time Alt. Az. Time Alt. Az.
17 Jan 6.8 05:19:09 10° SE 05:22:20 15° E 05:25:32 10° ENE visible
17 Jan 6.6 17:40:04 10° NW 17:44:14 21° W 17:48:22 10° SSW visible
18 Jan 6.8 05:05:55 10° SE 05:09:01 15° E 05:12:06 10° ENE visible
18 Jan 3.7 06:46:43 10° SSW 06:52:27 75° WNW 06:58:12 10° NNE visible
18 Jan 6.6 17:26:40 10° NW 17:30:53 22° W 17:35:05 10° SSW visible
19 Jan 6.8 04:52:42 10° SE 04:55:41 15° E 04:58:40 10° ENE visible
19 Jan 3.7 06:33:23 10° SSW 06:39:07 76° WNW 06:44:52 10° NNE visible
20 Jan 6.7 04:39:28 10° SE 04:42:21 14° E 04:45:14 10° ENE visible
20 Jan 3.7 06:20:01 10° SSW 06:25:46 78° WNW 06:31:31 10° NNE visible
21 Jan 6.7 04:26:15 10° SE 04:29:01 14° E 04:31:48 10° ENE visible
21 Jan 3.7 06:06:41 10° SSW 06:12:25 79° WNW 06:18:10 10° NNE visible
22 Jan 6.7 04:13:02 10° SE 04:15:43 13° E 04:18:22 10° ENE visible
22 Jan 3.7 05:53:20 10° SSW 05:59:04 81° WNW 06:04:50 10° NNE visible
23 Jan 6.6 03:59:50 10° ESE 04:02:22 13° E 04:04:55 10° ENE visible
23 Jan 3.6 05:40:00 10° SSW 05:45:43 83° WNW 05:51:29 10° NNE visible
24 Jan 6.6 03:46:38 10° ESE 03:49:02 13° E 03:51:27 10° ENE visible
24 Jan 3.6 05:26:38 10° SSW 05:32:23 84° WNW 05:38:08 10° NNE visible
25 Jan 6.6 03:33:27 10° ESE 03:35:43 12° E 03:37:59 10° ENE visible
25 Jan 3.6 05:13:18 10° SSW 05:19:02 86° WNW 05:24:47 10° NNE visible
26 Jan 6.5 03:20:15 10° ESE 03:22:24 12° E 03:24:31 10° ENE visible
26 Jan 3.6 05:01:38 20° SSW 05:05:42 87° WNW 05:11:27 10° NNE visible
